Simultaneous Nadir Overpasses (SNOs) Predictions

Prediction of SNOs between NOAA-19 and METOP-C Satellite Orbit:

Table of predicted SNOs for the next 14.0 days since TLE Epoch: 1/24/2025
Index Date (NOAA-19) Time (NOAA-19) Lat,Lon (NOAA-19) SZA (NOAA-19 ) Date (METOP-C) Time (METOP-C) Lat,Lon (METOP-C) SZA (METOP-C ) Distance(km) Time Diff (sec)
1 01/28/2025 06:12:50 76.78,-171.07 109.67 01/28/2025 06:13:56 76.76,-171.00 109.75 2.18 66
2 01/28/2025 07:03:39 -76.19, -1.52 69.77 01/28/2025 07:04:23 -76.20, -1.59 69.74 2.18 44
3 01/28/2025 07:54:33 76.17, 165.83 110.25 01/28/2025 07:55:04 76.15, 165.92 110.30 3.02 31
4 01/28/2025 08:45:21 -75.52, -24.67 69.15 01/28/2025 08:45:30 -75.53, -24.71 69.14 1.09 9
5 01/28/2025 09:36:09 75.22, 143.58 111.14 01/28/2025 09:36:06 75.23, 143.51 111.11 2.61 3
6 01/28/2025 10:27:01 -74.74, -47.75 68.44 01/28/2025 10:26:35 -74.74, -47.75 68.47 0.14 26
7 01/28/2025 11:17:47 74.32, 120.68 111.93 01/28/2025 11:17:09 74.33, 120.64 111.88 1.61 38
8 01/28/2025 12:08:38 -73.79, -70.69 67.61 01/28/2025 12:07:37 -73.78, -70.65 67.67 1.51 61



Historial Predications of SNOs between NOAA-19 and METOP-C
